{"data":{"norad_id":67638,"intl_designator":"2026-020X","name":"STARLINK-36599","alt_names":[],"object_type":"PAYLOAD","status":"ACTIVE","operator":null,"country":"US","launch_date":"2026-01-30","launch_site_code":"AFETR","launch_vehicle":null,"mission":null,"orbit_class":"UNKNOWN","rcs_meters":null,"size_class":null,"mass_kg":null,"dimensions":null,"purposes":["comms"],"wikipedia_slug":null,"has_3d_model":false,"image_url":null,"decayed_at":null,"tle_current":{"epoch":"2026-09-19T22:02:09.565728Z","epoch_age_seconds":120041,"freshness":"FRESH","line1":"1 67638U 26020X   26262.91816627  .00009905  00000+0  36888-3 0  9996","line2":"2 67638  42.9948 123.2813 0000972 235.4644 124.6116 15.27588299 35818","mean_motion":15.27588299,"eccentricity":9.72e-5,"inclination_deg":42.9948,"raan_deg":123.2813,"arg_perigee_deg":235.4644,"mean_anomaly_deg":124.6116,"bstar":0.00036888,"rev_number":3581,"period_min":94.266236586302,"perigee_km":482.3573410875,"apogee_km":483.69115083371,"semimajor_km":6861.1612459606,"source":"CELESTRAK","updated_at":"2026-09-20T09:00:43.615399Z"}}}